Location: Beetenbrück
(52.8113°N, 9.5946°E)
Time: 22:16:39
(UTC+00:00)

Cosmos 2218 Rocket - Pass Details

Date: 14 April 2026
Orbit: 955 x 1005 km, 82.9° (Epoch: 12 May)

Event Time Altitude Azimuth Distance (km) Brightness Sun altitude
Rises 19:38:45 0° 177° (S) 3,626 6.6 -11.6°
Reaches altitude 10° 19:41:15 10° 175° (S) 2,682 5.9 -12.0°
Maximum altitude 19:47:18 65° 95° (E) 1,047 4.0 -12.7°
Drops below altitude 10° 19:53:24 10° 15° (NNE) 2,703 6.6 -13.5°
Sets 19:55:55 0° 13° (NNE) 3,657 7.4 -13.8°
